Regional Weather Roundup
Issued by NWS Sioux Falls, SD

Home | Current Version | Previous Version | Graphics & Text | Print | Product List | Glossary Off
Versions: 1 2 3 4 5 6 7 8 9 10 11 12 13 14 15 16 17 18 19 20 21 22 23 24 25 26 27 28 29 30 31 32 33 34 35 36 37 38 39 40 41 42 43 44 45 46 47 48 49 50

000
ASUS43 KFSD 200910
RWRFSD

WEATHER ROUNDUP FOR SE SOUTH DAKOTA/SW MINNESOTA/NW IOWA
NATIONAL WEATHER SERVICE SIOUX FALLS SD
300 AM CST TUE FEB 20 2018

NOTE: "FAIR" INDICATES FEW OR NO CLOUDS BELOW 12,000 FEET WITH NO
SIGNIFICANT WEATHER AND OR OBSTRUCTIONS TO VISIBILITY.


SDZ038>040-050-052>070-201000-
SOUTHEAST SOUTH DAKOTA

CITY           SKY/WX    TMP DP  RH WIND       PRES   REMARKS
BROOKINGS      LGT SNOW   6   3  87 N12       29.91F VSB 3/4 WCI  -9
CHAMBERLAIN      N/A      4   1  85 NW12      30.00F WCI -12
HURON          LGT SNOW   4   0  83 N15       29.99F FOG     WCI -14
MADISON        LGT SNOW   7   7 100 N9        29.91S VSB 3/4 WCI  -7
MITCHELL       LGT SNOW   6   2  83 NW16      30.00S FOG     WCI -12
SIOUX FALLS    FOG       10   6  84 N13       29.90F VSB 3/4 WCI  -5
WINNER         MIX PCPN   4  -1  80 N14       29.98S WCI -14
YANKTON        LGT SNOW  10   7  85 NW14      29.95S FOG     WCI  -5
$$

MNZ071-072-080-081-089-090-097-098-201000-
SOUTHWEST MINNESOTA

CITY           SKY/WX    TMP DP  RH WIND       PRES   REMARKS
FAIRMONT       CLOUDY    19  17  92 NW13      29.85S WCI   6
JACKSON        CLOUDY    18  14  86 NW12      29.84F WCI   5
LUVERNE        LGT SNOW  12   9  85 N13       29.92R WCI  -3
MARSHALL       LGT SNOW   9   7  92 NW18      29.95R FOG     WCI -10
MONTEVIDEO     LGT SNOW  12  10  92 N9        29.94R VSB 1   WCI   0
PIPESTONE        N/A    N/A N/A N/A N8        29.88R
REDWOOD FALLS  HVY SNOW  14  12  92 NW10      29.91R VSB 1/4 WCI   1
TRACY          LGT SNOW  13  11  92 NW10      29.89R VSB 3/4 WCI   0
WINDOM         LGT SNOW  16   1  53 CALM      29.86S
WORTHINGTON    FLURRIES  13  10  88 N14       29.86R WCI  -2
$$

IAZ001>003-012>014-020>022-031-032-NEZ013-014-SDZ071-201000-
NORTHWEST IOWA

CITY           SKY/WX    TMP DP  RH WIND       PRES   REMARKS
CHEROKEE       CLOUDY    19  18  95 NW7       29.88R FOG     WCI  10
DENISON        RAIN      21  19  93 NW10      29.88R WCI  10
ESTHERVILLE    CLOUDY    17  16  95 N13       29.83F WCI   4
LE MARS        FLURRIES  18  14  86 MISG      29.91R
ORANGE CITY    LGT SNOW  18  16  93 N7        29.90R WCI   8
SHELDON        FLURRIES  16  14  93 MISG      29.88R
SIOUX CITY     LGT SNOW  17  14  88 NW15      29.92R FOG     WCI   2
SPENCER        MIX PCPN  19  15  84 NW12      29.86R WCI   7
STORM LAKE     LGT SNOW  19  18  93 MISG      29.84S
$$

ABBREVIATIONS USED IN REMARKS
   TC - TEMPERATURE IN CELSIUS
  WCI - WIND CHILL INDEX
   HX - HEAT INDEX
  VSB - VISIBILITY





USA.gov is the U.S. government's official web portal to all federal, state and local government web resources and services.